Powrót do katalogu

ATLAS 2A CENTAUR R/B

AktywnyHEO
NORAD 26053·ROCKET BODY·🇺🇸 United States

Wystrzelony Jan 21, 2000 z Cape Canaveral Space Force Station

Loading…

Następne Przeloty (najbliższe 24 godziny)

TLE

ŚwieżeSource: Space-Track

Epoka: Sep 13, 2026, 18:28 UTC

1 26053U 00001B   26256.76958674  .00007357  00000-0  99828-3 0  9991
2 26053  26.0377  60.9044 5727808 242.0281  49.4560  4.47285813329893

Śledź ATLAS 2A CENTAUR R/B w czasie rzeczywistym z AllMySat

Download on the App Store